Corpus Christi, TX

4:12 PM CDT on May 28, 2017 (GMT -0500)
Corpus Christi International

Weather History for KCRP - March, 2011

Change the Weather History Date:

Monday, March 28, 2011

  Actual Average Record
Temperature  
Mean Temperature 70 °F 68 °F  
Max Temperature 73 °F 78 °F 98 °F (2014)
Min Temperature 66 °F 59 °F 41 °F (1931)
Degree Days  
Heating Degree Days 0 1  
Month to date heating degree days 45 78  
Since 1 July heating degree days 933 878  
Cooling Degree Days 5 5  
Month to date cooling degree days 155 100  
Year to date cooling degree days 253 176  
Growing Degree Days 20 (Base 50)    
Moisture  
Dew Point 65 °F    
Average Humidity 87    
Maximum Humidity 100    
Minimum Humidity 73    
Precipitation  
Precipitation 0.01 in 0.05 in 2.10 in (1999)
Month to date precipitation 0.23 1.74  
Year to date precipitation 4.37 5.21  
Snow  
Snow 0.00 in - - ()
Month to date snowfall 0.0  
Since 1 July snowfall 0.0  
Snow Depth 0.00 in    
Sea Level Pressure  
Sea Level Pressure 29.85 in    
Wind  
Wind Speed 15 mph (ENE)    
Max Wind Speed 23 mph    
Max Gust Speed 29 mph    
Visibility 7 miles    
Events      
T = Trace of Precipitation, MM = Missing Value Source: NWS Daily Summary

Daily Weather History Graph

Daily Weather History Graph

Search for Another Location

Airport or City:

Trip Planner

Search our weather history database for the weather conditions in past years. The results will help you decide how hot, cold, wet, or windy it might be!

Date:

Astronomy

Mar. 28, 2011 Rise Set
Actual Time 7:25 AM CDT 7:45 PM CDT
Civil Twilight 7:01 AM CDT 8:08 PM CDT
Nautical Twilight 6:34 AM CDT 8:36 PM CDT
Astronomical Twilight 6:06 AM CDT 9:04 PM CDT
Moon 3:49 AM CDT 2:55 PM CDT
Length of Visible Light 13h 07m
Length of Day
12h 20m
Waning Crescent, 29% of the Moon is Illuminated
Mar 28
Waning Crescent
Apr 3
New
Apr 11
First Quarter
Apr 17
Full
Apr 24
Last Quarter

Hourly Weather History & Observations

Time (CDT) Temp. Dew Point Humidity Pressure Visibility Wind Dir Wind Speed Gust Speed Precip Events Conditions
12:51 AM 72.0 °F 69.1 °F 91% 29.81 in 9.0 mi ENE 13.8 mph - N/A   Overcast
1:27 AM 73.4 °F 69.8 °F 88% 29.81 in 10.0 mi East 9.2 mph 19.6 mph N/A   Overcast
1:51 AM 73.0 °F 69.1 °F 87% 29.81 in 10.0 mi East 9.2 mph - N/A   Overcast
2:51 AM 72.0 °F 69.1 °F 91% 29.80 in 10.0 mi East 8.1 mph - N/A   Overcast
3:05 AM 71.6 °F 68.0 °F 88% 29.80 in 10.0 mi NE 15.0 mph - N/A   Overcast
3:51 AM 71.1 °F 64.9 °F 81% 29.79 in 10.0 mi NE 18.4 mph - N/A   Overcast
4:51 AM 70.0 °F 62.1 °F 76% 29.80 in 10.0 mi NE 19.6 mph - N/A   Overcast
5:51 AM 69.1 °F 63.0 °F 81% 29.81 in 10.0 mi NE 18.4 mph - N/A   Overcast
6:51 AM 66.9 °F 59.0 °F 76% 29.84 in 10.0 mi NNE 12.7 mph - N/A   Overcast
7:10 AM 66.2 °F 59.0 °F 78% 29.85 in 10.0 mi NNE 11.5 mph - N/A   Overcast
7:51 AM 66.0 °F 59.0 °F 78% 29.87 in 9.0 mi NNE 15.0 mph - N/A   Overcast
8:51 AM 66.0 °F 57.9 °F 75% 29.89 in 8.0 mi NNE 17.3 mph 23.0 mph 0.00 in   Overcast
9:51 AM 68.0 °F 59.0 °F 73% 29.91 in 8.0 mi NNE 19.6 mph - N/A   Overcast
10:51 AM 69.1 °F 60.1 °F 73% 29.91 in 7.0 mi NE 23.0 mph - N/A   Overcast
11:38 AM 71.6 °F 62.6 °F 73% 29.91 in 6.0 mi ENE 16.1 mph 24.2 mph N/A   Haze
11:51 AM 71.1 °F 64.0 °F 78% 29.91 in 6.0 mi ENE 19.6 mph 26.5 mph N/A   Haze
12:36 PM 71.6 °F 66.2 °F 83% 29.89 in 6.0 mi ENE 16.1 mph 25.3 mph N/A   Haze
12:51 PM 72.0 °F 66.0 °F 81% 29.89 in 6.0 mi East 13.8 mph 28.8 mph N/A   Haze
1:51 PM 72.0 °F 66.0 °F 81% 29.88 in 8.0 mi East 18.4 mph 25.3 mph N/A   Overcast
2:51 PM 72.0 °F 66.0 °F 81% 29.87 in 5.0 mi ENE 21.9 mph 26.5 mph N/A   Haze
3:21 PM 71.6 °F 66.2 °F 83% 29.85 in 6.0 mi ENE 17.3 mph 25.3 mph N/A   Haze
3:51 PM 71.1 °F 66.0 °F 84% 29.85 in 5.0 mi East 13.8 mph 21.9 mph 0.00 in   Light Drizzle
4:51 PM 71.1 °F 66.0 °F 84% 29.83 in 5.0 mi East 16.1 mph - 0.00 in   Haze
5:51 PM 71.1 °F 66.0 °F 84% 29.81 in 5.0 mi East 13.8 mph 20.7 mph N/A   Haze
6:51 PM 70.0 °F 66.9 °F 90% 29.80 in 4.0 mi East 15.0 mph - N/A   Overcast
7:51 PM 70.0 °F 66.9 °F 90% 29.81 in 4.0 mi ENE 11.5 mph - N/A   Overcast
8:51 PM 70.0 °F 66.9 °F 90% 29.82 in 5.0 mi East 10.4 mph - N/A   Overcast
9:42 PM 69.8 °F 68.0 °F 94% 29.85 in 2.5 mi East 8.1 mph - 0.00 in   Light Drizzle
9:51 PM 70.0 °F 68.0 °F 93% 29.85 in 2.5 mi East 9.2 mph - 0.00 in   Light Drizzle
10:06 PM 69.8 °F 69.8 °F 100% 29.85 in 2.5 mi East 9.2 mph - 0.00 in   Light Drizzle
10:51 PM 70.0 °F 69.1 °F 97% 29.85 in 2.5 mi East 9.2 mph - 0.00 in   Light Drizzle
11:24 PM 69.8 °F 69.8 °F 100% 29.86 in 2.5 mi ESE 8.1 mph - 0.01 in   Light Drizzle
11:51 PM 70.0 °F 69.1 °F 97% 29.85 in 2.5 mi East 9.2 mph - 0.01 in   Light Drizzle